Theta_e
310 312 314 315 316 316 316 317 318 316 316 318 316 315 314 313 314 313 316 316 316 319 319 319 321 323 323 325 330 329 328 325 325 328 325 326 328 328 329 327 327 329 328 325 326 329 334 331 332 336 336 334 334 335
304 309 313 314 314 315 316 314 316 316 317 317 315 314 314 313 313 313 316 316 315 315 317 316 318 320 322 323 324 329 326 325 324 324 325 326 328 329 330 329 327 329 328 327 328 332 331 331 332 330 330 332 334 335
302 306 309 311 312 314 316 315 316 316 316 316 315 314 314 313 313 314 313 315 315 315 318 320 319 313 317 321 322 327 325 325 324 323 325 326 328 330 330 330 329 329 329 329 329 332 330 330 329 328 328 330 331 330
302 303 306 308 309 311 313 313 313 314 315 316 315 314 313 312 314 314 313 316 314 315 318 321 322 322 321 319 320 325 327 327 327 327 326 329 330 328 330 329 330 329 329 329 329 328 327 327 327 327 327 328 327 327
304 303 303 304 306 308 309 313 309 310 314 315 315 314 313 312 314 314 313 314 314 314 318 319 319 321 323 321 320 322 324 325 326 326 326 327 326 328 328 328 329 328 331 328 327 326 331 328 327 326 327 327 327 327
305 304 304 304 303 303 304 310 308 308 311 314 315 314 313 312 313 313 315 316 315 314 315 322 321 321 323 322 321 319 322 324 325 326 324 324 325 328 329 330 327 327 326 326 328 327 327 326 328 327 326 327 327 327
303 305 305 305 305 304 305 308 311 310 312 314 314 313 311 312 312 314 316 315 313 314 314 322 322 321 324 323 322 321 323 323 324 324 324 326 329 328 330 332 328 326 325 324 325 326 329 327 326 326 326 326 327 327
302 303 305 306 307 305 305 306 308 309 312 313 313 311 312 312 312 312 313 314 313 313 316 323 324 326 326 324 323 322 324 325 324 325 326 327 328 328 332 330 327 326 325 325 325 325 326 327 326 325 326 326 328 326
303 302 305 305 305 306 307 307 309 310 311 313 312 311 312 311 312 313 314 315 314 314 317 323 325 331 325 322 322 322 324 326 326 329 329 328 331 328 329 329 327 325 324 323 325 324 325 324 327 326 327 326 328 328
303 304 304 305 305 306 307 307 308 310 311 311 310 312 312 311 314 313 314 314 314 315 317 321 321 327 324 325 324 324 325 327 328 329 325 327 327 326 330 329 328 327 325 324 324 326 326 325 325 325 325 326 326 328
303 304 304 304 305 306 307 307 308 309 310 310 312 312 314 313 313 316 319 319 319 321 320 320 319 327 322 328 329 325 327 329 329 329 329 329 329 330 328 327 328 327 325 325 325 325 325 326 327 325 325 326 327 327
304 304 304 305 305 306 307 310 309 309 312 312 311 312 313 314 315 319 323 322 322 322 322 322 320 323 325 327 327 326 328 328 331 327 326 328 331 329 327 328 328 328 325 325 325 326 326 326 326 326 326 327 327 327
304 303 304 304 305 306 309 310 309 309 311 312 310 312 314 316 318 322 324 324 324 322 323 322 323 322 327 327 327 328 328 329 327 329 330 329 330 329 328 328 327 326 326 325 326 326 326 326 326 325 327 327 327 327
303 303 303 305 305 306 308 309 308 309 310 311 312 314 316 319 321 322 323 323 323 323 323 321 322 323 324 325 328 325 327 327 329 331 329 328 328 325 328 327 326 326 326 327 326 326 326 328 326 325 326 327 327 327
302 303 303 305 305 306 308 309 308 308 311 311 313 318 318 318 320 320 322 322 323 323 324 323 323 323 327 328 324 327 328 328 327 326 330 331 328 329 328 327 327 327 327 326 327 327 327 328 327 325 327 327 325 323
302 304 305 305 306 307 309 308 308 310 312 312 315 317 319 320 321 321 321 322 322 323 323 323 324 324 326 328 325 327 325 325 328 331 329 332 333 330 331 329 329 327 327 326 327 327 327 327 326 325 326 323 324 325
303 306 307 307 307 309 307 308 310 311 313 316 317 317 317 317 320 321 321 320 322 323 325 324 326 324 323 325 324 324 325 326 327 327 321 324 330 333 330 328 327 327 327 327 328 327 327 325 324 325 325 324 324 324
305 307 308 307 309 308 308 310 312 313 315 315 316 316 317 318 318 319 321 320 321 323 323 324 323 326 324 324 324 324 323 323 326 327 326 328 332 334 331 328 326 326 327 327 326 325 324 325 325 325 325 324 324 324
306 308 308 309 309 310 310 310 311 313 314 315 315 315 316 315 317 318 319 319 320 321 322 323 324 323 324 323 325 326 327 326 326 323 322 322 330 332 332 332 328 328 327 327 326 325 325 326 326 325 325 325 324 324
306 307 308 309 309 310 311 312 312 314 315 315 316 316 315 316 316 316 318 318 319 320 321 322 322 321 321 321 326 325 322 326 326 324 322 322 329 331 330 330 331 329 328 328 328 326 326 327 327 326 325 325 326 326
305 307 308 309 308 308 310 312 314 315 315 316 317 317 317 317 317 317 317 318 318 319 319 319 320 321 322 323 324 321 321 321 320 328 327 327 327 327 329 328 329 330 330 328 328 326 326 327 327 326 326 325 325 325
307 307 309 308 310 310 310 313 315 316 317 317 318 318 318 319 319 319 319 318 318 319 319 318 318 320 321 324 324 323 320 322 328 327 325 325 328 329 330 327 326 327 329 329 328 327 326 326 325 329 330 329 329 329
307 308 310 310 310 311 312 314 316 316 317 318 318 319 320 321 321 321 320 320 319 318 318 319 320 319 320 323 324 325 326 326 325 325 325 325 324 326 320 331 327 329 330 328 327 328 325 326 328 328 327 326 327 327
308 310 309 311 312 313 314 315 316 317 317 319 319 320 321 322 323 322 323 323 323 322 323 322 321 323 323 324 325 324 324 323 323 325 325 326 327 328 328 329 329 329 329 328 327 327 327 326 323 325 325 324 322 322
308 309 310 310 312 314 315 316 317 317 318 319 321 322 323 323 325 325 326 323 324 323 323 323 323 323 324 323 324 324 323 323 323 325 326 327 327 325 326 325 325 325 325 325 324 324 324 323 322 321 320 319 318 319
308 311 313 314 315 315 316 317 318 318 317 319 321 322 321 326 325 324 326 325 320 322 321 322 324 325 326 326 326 324 323 323 323 324 324 323 324 324 324 324 323 323 322 322 321 321 320 319 318 318 318 317 315 317
312 313 314 313 315 315 316 316 316 317 317 320 323 324 325 326 326 327 324 321 321 324 326 324 324 325 327 326 325 322 324 324 324 322 323 323 321 319 320 324 322 321 320 319 317 317 316 316 317 317 317 317 316 316
312 313 314 315 315 316 317 317 318 319 321 322 324 325 326 326 328 326 324 325 326 326 324 325 324 324 322 321 323 323 323 321 320 321 322 321 321 322 319 319 318 317 316 317 316 316 316 316 316 316 315 315 315 314
313 313 314 315 316 317 317 317 318 319 320 323 325 326 326 325 325 326 325 325 327 327 324 326 325 323 324 324 323 319 322 324 323 323 323 323 321 317 316 315 315 316 315 316 316 314 313 316 316 314 314 314 315 315
314 314 315 317 316 316 316 317 318 319 321 323 323 324 325 326 325 325 324 325 324 325 327 326 325 325 325 325 324 324 324 322 320 319 317 316 316 316 316 317 318 317 316 315 314 314 315 312 314 315 315 317 316 315
315 314 315 314 315 316 316 318 319 321 322 323 323 323 324 324 325 324 323 323 323 322 321 322 322 321 321 319 318 317 317 317 318 318 317 316 316 317 317 317 317 317 316 317 317 316 316 316 315 315 315 315 315 315
315 316 317 318 318 319 321 321 323 324 324 324 324 323 323 322 322 320 319 320 319 319 319 319 319 318 318 317 316 316 316 317 317 317 317 318 318 318 317 317 317 317 318 317 316 316 316 316 314 314 314 314 314 314
317 318 318 318 320 320 321 323 323 322 322 322 322 322 319 318 319 320 321 321 320 319 319 317 316 315 314 313 313 312 312 311 312 312 312 315 316 316 316 317 317 318 317 316 315 315 315 315 315 314 314 313 312 311
Wind_Speed
16 14 14 13 13 13 13 12 13 15 13 12 12 10 9 8 8 9 5 12 5 12 26 24 19 20 17 14 8 4 6 10 12 11 10 4 8 4 8 10 6 6 6 9 11 13 5 8 5 6 5 2 7 11
16 16 15 13 14 13 11 10 10 12 14 12 11 10 9 9 8 7 3 8 8 10 18 21 18 25 22 15 16 12 17 11 9 7 5 2 10 7 11 8 10 8 8 3 1 2 2 1 8 8 9 2 5 7
15 15 15 13 12 12 9 9 12 13 10 11 11 9 9 10 9 8 6 11 10 12 23 21 22 27 25 27 18 14 12 12 14 15 7 5 1 6 9 4 4 8 12 4 8 9 12 11 5 1 2 3 6 7
14 14 14 13 12 11 11 7 13 11 8 9 11 9 9 10 9 9 9 6 9 7 7 9 4 15 15 23 27 21 14 7 5 4 6 3 4 2 4 6 8 10 9 1 5 12 6 7 5 5 3 3 6 8
15 15 14 12 11 11 9 10 12 10 10 9 11 9 9 9 9 11 12 14 15 7 6 18 25 14 13 19 25 27 19 14 9 9 7 7 7 7 7 4 10 8 8 4 3 4 6 10 8 4 5 6 7 6
15 14 13 12 13 13 11 11 10 10 12 13 11 10 10 10 9 6 5 2 8 14 5 5 9 14 13 17 22 26 26 18 15 10 5 5 6 3 1 3 13 8 7 15 15 15 14 22 12 7 8 8 9 7
14 14 13 10 9 11 11 12 10 12 13 10 12 11 10 10 10 7 4 2 1 11 4 7 5 12 14 18 19 22 22 21 19 19 15 15 5 5 7 10 11 3 6 9 10 10 10 3 10 10 8 9 10 7
15 13 13 15 15 12 11 13 11 11 11 10 10 9 10 10 9 12 16 11 1 9 6 5 5 3 14 11 18 21 22 20 20 18 19 10 8 2 4 17 5 8 9 13 12 12 10 10 8 9 12 11 15 11
14 10 11 10 10 10 10 11 11 12 10 9 10 8 8 4 4 4 6 9 10 9 6 7 8 3 12 17 17 19 19 9 13 10 13 6 5 3 20 15 8 8 12 13 12 12 12 15 7 12 10 13 16 13
10 8 10 10 10 9 8 8 9 7 7 7 5 2 4 3 3 1 4 7 8 8 9 7 10 2 8 17 9 16 15 6 9 10 12 3 3 28 17 16 13 12 12 12 17 15 14 14 11 11 13 15 15 14
9 9 10 10 9 7 7 7 6 6 5 4 4 4 4 4 4 4 6 8 10 6 10 13 18 4 6 4 2 6 4 3 5 3 3 4 11 21 21 17 17 15 14 12 13 13 15 16 14 14 15 15 14 12
9 10 10 9 8 9 9 8 8 9 5 5 4 5 3 4 6 5 5 5 7 6 8 13 14 15 12 19 5 5 1 5 3 3 2 6 11 9 7 8 13 16 17 14 13 12 9 11 13 13 13 14 13 12
10 11 10 9 9 12 5 6 10 12 3 5 4 3 4 6 4 6 6 5 5 6 6 7 8 13 4 2 6 4 3 2 3 2 6 11 9 7 4 8 10 15 18 18 16 14 12 13 11 13 13 13 14 11
9 10 11 10 11 13 12 8 10 9 5 4 4 3 4 5 6 7 1 3 8 1 12 8 9 8 5 6 4 6 4 4 3 8 15 4 21 15 13 11 10 10 12 17 21 20 17 13 12 10 13 13 12 11
9 11 11 9 11 13 10 9 10 8 4 4 4 4 9 13 13 20 14 8 2 3 9 3 2 11 2 3 4 4 8 8 6 5 2 11 6 4 11 12 12 11 11 13 16 20 20 16 12 13 13 12 11 12
9 8 5 9 12 13 10 11 10 9 4 5 7 9 11 7 12 15 16 3 3 5 3 6 2 3 3 2 4 6 4 5 3 7 13 10 9 3 5 10 10 10 9 12 15 18 18 16 14 15 14 12 13 13
6 6 4 9 12 8 13 11 8 5 5 6 8 14 12 14 9 8 6 9 5 5 2 2 5 7 4 3 5 6 6 2 8 12 11 10 7 6 5 8 10 10 10 12 14 15 16 15 15 16 15 14 13 14
8 4 5 11 8 11 12 8 4 4 6 9 8 15 13 4 4 12 7 6 7 3 5 4 5 4 4 6 4 6 6 8 12 12 11 9 6 4 6 7 8 10 12 14 15 14 14 16 16 15 14 15 14 14
12 5 8 9 13 6 6 5 5 5 9 13 14 17 16 15 10 12 9 5 3 3 3 5 4 6 7 2 4 10 16 5 14 12 10 13 14 11 5 9 10 12 13 14 15 15 15 15 14 13 13 14 14 14
14 5 10 11 14 5 4 5 7 7 8 8 12 13 15 13 13 14 14 15 13 11 5 3 6 13 7 9 12 8 8 8 7 8 8 26 23 10 10 9 11 14 15 16 16 16 16 14 13 13 15 19 18 15
9 7 5 9 13 2 5 4 6 9 8 7 8 8 11 13 16 18 19 16 15 18 13 18 18 16 13 5 1 4 6 10 23 14 4 9 6 4 9 10 9 12 17 19 19 19 15 17 15 15 12 12 10 11
9 10 7 12 4 5 7 9 7 6 5 10 8 8 9 10 14 16 16 19 22 20 21 20 21 19 15 7 7 7 7 6 10 13 11 9 8 8 8 13 13 14 15 18 21 23 18 8 6 6 6 4 2 6
11 12 5 7 5 5 9 8 6 5 4 3 3 4 4 4 5 6 6 15 22 22 22 23 22 22 19 10 9 10 8 10 13 15 13 9 8 2 8 13 16 17 13 15 24 12 11 9 8 4 3 3 2 4
9 6 4 4 9 5 5 4 5 4 4 4 3 3 3 3 4 5 3 3 3 7 6 7 9 11 15 15 14 14 13 13 15 15 13 13 10 2 3 7 9 17 19 20 17 12 11 7 7 6 3 1 0 1
4 5 4 5 5 5 4 3 3 3 4 3 4 5 3 3 3 3 0 4 9 9 9 8 11 14 18 19 19 15 18 19 21 16 11 6 6 13 6 8 11 12 9 10 10 9 8 9 9 7 6 4 1 2
3 7 6 9 4 4 2 2 3 3 2 3 4 2 1 3 2 1 2 5 3 7 7 8 8 12 11 13 15 16 15 20 21 17 11 4 6 11 9 3 5 5 6 7 9 9 8 7 7 5 5 3 6 3
3 5 7 6 4 3 2 3 5 4 4 4 3 3 4 3 0 3 5 1 3 1 1 1 2 5 5 8 10 9 12 13 17 17 12 7 4 2 15 9 7 9 10 9 8 8 7 6 5 4 3 2 2 3
5 4 5 3 5 5 2 3 2 3 4 5 4 2 2 0 2 3 4 2 3 6 9 11 11 12 10 15 16 15 16 14 14 19 13 12 13 6 12 14 14 12 12 12 10 7 6 6 5 3 2 1 1 3
6 4 6 7 6 5 4 4 3 2 8 5 3 4 4 4 5 7 5 6 8 9 8 9 15 15 16 16 15 26 17 16 16 17 15 14 15 10 7 11 15 11 9 11 10 7 4 5 4 2 2 4 4 4
5 4 5 2 1 3 6 8 8 9 9 8 6 2 6 8 9 8 9 9 11 14 11 13 14 16 14 12 12 12 15 14 12 12 12 13 14 12 11 11 11 12 10 10 7 5 4 7 5 4 2 4 6 3
3 1 2 2 4 10 12 10 11 11 10 5 1 2 4 8 9 5 1 2 12 12 14 15 14 12 11 11 12 15 16 11 10 8 9 12 12 10 9 8 7 8 5 10 9 11 1 7 5 3 2 4 7 7
12 12 8 5 5 7 7 5 4 3 3 3 4 4 3 6 7 5 11 7 10 13 15 15 14 11 11 10 11 13 13 10 7 4 5 10 9 8 8 6 5 5 6 4 2 1 2 3 4 5 6 8 8 8
15 17 11 3 2 1 2 2 2 3 4 2 4 5 10 11 5 7 2 3 5 8 13 15 12 10 9 8 7 6 5 3 5 5 4 5 5 5 2 4 6 5 3 2 3 1 2 3 4 4 5 6 5 6
Wind_Direction
281 285 290 294 289 281 274 264 259 263 266 259 263 271 283 297 316 333 301 296 275 277 277 277 275 285 290 280 300 292 306 238 211 222 230 239 279 224 259 256 270 229 227 230 241 262 211 8 158 15 79 121 66 88
281 280 283 290 291 284 273 270 273 269 265 252 260 270 280 290 288 324 333 292 293 272 263 286 267 253 254 267 297 302 206 231 235 214 200 159 258 250 226 232 212 214 256 293 300 5 170 132 168 139 294 163 127 99
281 278 276 278 284 278 267 268 275 271 255 253 259 268 279 285 277 284 288 300 307 297 298 262 259 254 243 239 240 277 217 242 247 213 171 219 136 294 261 278 265 219 2 344 342 167 186 190 141 295 212 75 93 73
282 278 275 276 272 270 264 269 283 290 255 257 264 271 280 283 278 277 279 286 270 287 278 284 337 248 238 226 223 233 268 298 298 212 171 137 181 240 338 300 247 151 235 27 294 319 165 171 223 188 199 101 110 101
283 277 273 270 267 255 259 257 258 288 293 270 273 276 278 283 280 280 283 271 256 235 304 298 306 250 225 213 217 221 232 251 257 212 221 212 174 191 285 327 288 173 135 192 180 272 312 337 223 214 208 171 158 155
282 274 271 270 265 258 251 249 254 257 279 284 277 276 282 280 276 299 318 245 260 228 282 284 308 262 230 213 211 210 216 228 233 250 196 265 280 146 190 284 274 286 219 214 191 176 236 178 187 177 213 187 185 182
290 270 264 265 268 256 249 246 248 267 275 269 272 274 282 278 269 219 253 184 39 208 252 274 248 213 224 202 207 203 206 218 224 235 227 211 137 222 254 254 178 195 288 288 274 240 194 189 170 186 196 194 179 187
283 271 271 264 265 263 250 246 244 255 266 271 279 288 278 278 272 256 245 234 324 207 257 272 262 159 210 197 193 198 200 210 217 230 237 162 185 61 257 270 310 300 285 259 241 243 235 230 220 236 191 197 176 194
290 261 274 269 262 263 257 247 250 250 262 273 278 285 291 247 242 275 201 201 240 222 291 268 279 356 344 210 193 190 199 203 207 214 227 233 133 124 247 223 238 264 257 242 230 225 222 231 203 196 215 198 190 188
280 264 272 268 257 249 242 243 249 247 255 261 261 255 249 259 246 174 127 173 209 215 231 253 278 130 261 283 184 180 199 207 208 221 161 184 239 253 225 215 229 235 246 225 229 215 210 223 233 217 227 225 204 194
276 267 272 265 244 232 216 228 222 219 224 210 211 228 255 229 178 228 223 207 193 228 217 234 235 191 217 249 319 304 161 86 200 231 319 217 206 225 229 220 203 199 224 227 221 224 225 220 218 227 224 213 209 193
266 274 270 259 230 211 202 224 208 185 215 200 230 258 208 198 233 239 218 207 203 236 223 192 212 193 230 216 166 340 33 180 198 153 201 239 245 206 196 187 191 196 211 208 207 208 208 209 208 213 210 201 211 197
259 275 260 244 219 204 217 203 199 196 220 232 232 248 217 203 240 234 206 200 199 229 200 219 192 203 165 216 66 66 333 273 318 48 182 236 117 100 178 206 192 198 206 216 212 203 201 196 201 206 207 204 206 203
258 270 265 240 216 209 209 225 192 197 201 211 215 221 246 196 229 236 227 334 282 320 313 197 213 196 230 195 138 100 251 318 255 175 231 202 171 184 170 184 191 202 210 212 210 212 204 192 189 204 203 200 200 200
266 265 257 230 206 201 210 197 186 188 213 239 238 235 221 248 298 299 287 281 146 299 276 112 124 249 65 296 198 95 170 186 228 210 95 47 61 172 182 197 200 210 207 210 205 203 200 193 192 202 197 190 200 204
262 273 254 196 193 189 214 186 187 187 220 227 226 251 265 288 291 283 310 158 133 316 249 282 223 12 165 230 226 185 224 212 73 37 24 36 25 337 265 201 202 210 193 202 192 191 187 187 193 195 191 195 193 194
243 200 195 182 186 202 178 174 186 220 246 215 236 236 245 267 267 281 295 308 9 284 244 211 211 195 230 227 219 195 228 43 108 79 67 73 357 292 213 197 188 172 178 180 173 173 180 183 187 186 195 202 199 197
203 216 175 179 195 168 184 200 227 244 248 247 254 269 248 249 236 274 290 341 6 287 237 255 353 246 249 217 279 201 214 192 121 142 187 222 246 248 201 180 174 172 174 165 168 172 177 180 184 192 195 199 202 202
200 192 178 178 172 179 185 216 223 253 253 261 251 251 255 266 204 231 244 247 250 277 287 283 260 247 239 79 15 344 8 63 107 97 109 206 255 253 184 179 169 166 169 172 175 178 180 185 190 191 190 194 204 211
208 142 181 190 188 195 212 222 213 251 268 267 266 265 267 259 258 249 255 234 208 207 228 227 249 265 288 284 76 108 39 357 17 140 224 224 231 191 195 182 182 184 182 184 185 187 183 186 198 204 207 203 199 219
212 195 185 187 193 217 281 273 242 248 279 275 271 275 262 244 236 240 237 239 248 223 222 235 248 253 255 290 228 141 172 238 266 309 147 4 52 204 187 203 190 192 197 197 198 201 202 189 197 206 212 223 231 248
196 195 187 187 208 228 251 234 242 284 265 254 254 240 252 239 237 236 238 238 237 234 238 242 250 261 267 232 249 268 190 194 277 292 307 317 323 317 286 224 205 199 198 199 204 205 194 209 184 116 111 155 253 275
186 184 177 177 208 232 263 231 238 237 255 278 268 248 232 240 239 218 211 233 235 233 236 245 239 235 252 251 211 190 198 221 249 262 264 262 267 285 279 288 194 170 148 122 41 93 164 184 185 100 20 18 327 293
163 176 191 216 210 248 247 222 234 252 248 237 259 257 258 248 227 228 244 261 253 221 232 249 245 244 226 221 221 218 217 235 245 248 245 251 298 53 98 50 83 85 98 106 136 138 122 144 111 114 107 106 31 282
153 199 217 231 251 256 238 232 220 238 256 258 261 243 222 223 232 229 42 196 217 237 246 250 245 239 247 244 233 233 236 232 229 233 233 237 151 136 190 97 81 64 75 92 90 99 104 108 111 107 103 67 11 271
212 215 210 193 230 230 269 293 34 2 306 282 266 291 298 235 221 206 231 161 230 269 253 239 241 235 238 232 230 237 232 216 213 209 203 187 157 157 90 19 92 88 94 104 108 119 121 115 114 130 138 95 77 40
244 228 222 217 189 189 272 289 259 257 253 260 262 222 222 233 154 82 96 167 319 184 205 201 191 177 174 161 161 150 146 164 174 175 159 146 140 184 175 209 126 139 134 130 127 123 119 120 117 124 127 111 63 15
256 287 267 208 242 238 241 215 247 250 240 247 269 276 292 179 75 123 159 157 99 125 123 110 115 125 117 124 133 135 137 132 145 173 160 129 112 135 125 140 144 138 139 129 124 124 125 123 116 101 101 105 351 311
228 252 270 248 230 227 235 222 255 234 263 307 312 331 15 60 89 108 110 128 118 139 127 107 130 123 127 124 125 157 147 151 151 156 160 166 159 135 125 130 141 133 137 155 126 93 148 160 145 154 295 269 261 306
236 251 227 238 237 252 247 237 262 278 306 327 319 339 75 82 101 89 94 94 122 128 119 114 109 135 136 121 120 138 151 145 140 136 136 143 146 144 143 149 161 167 160 152 159 129 92 160 174 223 254 306 313 318
158 91 20 254 253 256 254 259 271 277 282 299 279 343 115 114 111 117 144 42 137 131 126 134 134 126 134 133 126 127 115 110 100 87 82 146 148 149 152 155 161 169 158 179 184 182 219 265 275 149 59 344 23 32
170 192 200 204 257 269 253 261 245 216 191 170 129 120 110 140 122 143 109 74 103 105 100 104 100 85 101 102 87 84 98 110 124 124 120 76 102 127 159 186 191 192 185 183 205 231 205 288 350 20 14 23 14 7
205 223 210 172 234 359 356 338 114 87 58 60 145 126 118 126 127 126 118 136 136 134 113 105 101 91 90 92 95 106 161 161 188 212 219 185 133 144 136 316 215 164 171 273 287 248 148 108 61 32 11 353 347 355